Precipitable_Water
1.82 1.81 1.82 1.71 1.64 1.51 1.42 1.43 1.58 1.62 1.61 1.58 1.49 1.48 1.54 1.55 1.50 1.45 1.49 1.54 1.65 1.70
1.84 1.85 1.84 1.79 1.70 1.61 1.62 1.58 1.50 1.58 1.69 1.59 1.62 1.53 1.49 1.48 1.43 1.45 1.42 1.50 1.54 1.62
1.83 1.78 1.87 1.96 1.88 1.68 1.69 1.68 1.62 1.60 1.62 1.65 1.61 1.52 1.49 1.46 1.49 1.44 1.41 1.46 1.53 1.56
1.85 1.87 2.04 1.97 2.01 1.91 1.92 1.81 1.76 1.78 1.73 1.72 1.62 1.54 1.43 1.41 1.39 1.37 1.36 1.42 1.44 1.47
1.62 1.77 1.83 1.88 1.93 1.96 1.99 2.02 2.02 1.97 1.77 1.72 1.73 1.68 1.50 1.42 1.39 1.30 1.24 1.30 1.36 1.38
1.51 1.57 1.63 1.68 1.78 1.77 1.83 1.91 1.96 1.90 1.78 1.66 1.64 1.54 1.57 1.57 1.51 1.41 1.39 1.37 1.34 1.33
1.39 1.45 1.53 1.64 1.67 1.67 1.66 1.67 1.79 1.78 1.80 1.78 1.68 1.61 1.56 1.62 1.57 1.54 1.53 1.53 1.53 1.55
1.44 1.52 1.57 1.59 1.63 1.66 1.66 1.68 1.69 1.60 1.64 1.76 1.67 1.65 1.56 1.55 1.59 1.63 1.62 1.64 1.59 1.59
1.67 1.75 1.73 1.74 1.70 1.70 1.71 1.73 1.70 1.62 1.53 1.53 1.63 1.61 1.65 1.63 1.57 1.61 1.63 1.55 1.56 1.59
1.70 1.78 1.83 1.87 1.83 1.79 1.73 1.78 1.74 1.73 1.72 1.62 1.59 1.58 1.55 1.56 1.54 1.47 1.45 1.45 1.45 1.43
1.53 1.56 1.78 1.84 1.80 1.80 1.82 1.68 1.74 1.83 1.84 1.81 1.78 1.75 1.68 1.64 1.64 1.59 1.52 1.50 1.51 1.50
1.48 1.43 1.53 1.50 1.60 1.68 1.71 1.65 1.71 1.82 1.86 1.93 1.97 1.94 1.91 1.85 1.75 1.67 1.67 1.68 1.67 1.62
1.32 1.32 1.34 1.33 1.34 1.41 1.50 1.49 1.60 1.62 1.76 1.84 1.85 1.90 1.86 1.95 1.91 1.77 1.76 1.82 1.84 1.81
1.16 1.11 1.12 1.12 1.21 1.25 1.26 1.36 1.46 1.48 1.58 1.72 1.80 1.76 1.71 1.73 1.75 1.71 1.68 1.70 1.84 1.90
Wind_Speed
12 11 10 10 10 10 10 10 11 11 11 10 10 11 12 10 10 9 9 8 8 7
14 12 12 11 11 11 10 10 10 11 11 11 10 11 11 11 11 11 10 10 10 9
15 13 13 13 12 11 11 11 11 11 11 11 11 11 11 11 12 11 11 11 11 10
16 16 14 12 14 13 12 12 12 11 11 11 11 11 11 12 12 12 12 12 12 12
18 17 17 15 14 14 13 13 13 12 12 12 13 12 12 12 12 12 13 13 13 13
19 19 19 18 18 17 15 14 14 13 12 12 13 13 13 13 12 12 12 13 13 13
19 20 20 20 20 19 18 17 16 15 14 13 14 14 14 13 13 13 13 13 13 13
19 20 20 20 21 21 20 19 19 18 17 16 16 16 16 16 15 15 15 14 14 15
17 18 19 20 20 21 20 20 19 19 19 18 18 17 18 18 17 17 17 17 16 16
15 17 16 20 20 20 20 20 19 19 19 19 19 19 19 19 19 19 19 19 19 18
11 11 10 14 19 20 18 18 19 19 20 21 22 21 21 21 21 21 21 21 20 20
10 10 10 10 12 16 18 20 21 22 21 20 21 22 23 23 24 23 24 24 23 23
11 11 11 11 12 13 15 15 15 21 23 23 22 21 22 24 24 24 25 26 24 23
12 11 11 11 12 13 14 14 16 16 16 21 24 26 24 22 25 25 24 24 24 24
Wind_Direction
199 194 195 194 190 186 185 187 188 191 194 196 196 196 198 198 201 202 203 202 200 203
206 206 204 200 196 194 192 191 191 193 196 199 198 198 200 206 209 211 214 216 217 218
209 208 205 208 203 201 199 197 196 197 200 203 205 207 209 212 214 216 220 222 225 230
213 212 211 212 208 207 206 206 209 209 212 211 211 213 213 216 219 221 225 228 233 238
217 218 218 217 214 213 215 218 218 225 221 222 218 219 218 219 222 226 229 232 237 241
221 223 224 224 223 224 224 225 225 223 222 222 223 223 223 225 226 229 233 236 240 243
224 227 228 228 228 229 229 228 228 228 229 228 227 228 227 230 232 233 236 239 242 246
227 229 229 228 228 228 230 231 231 232 233 233 234 234 235 236 238 240 242 244 246 249
228 228 229 227 227 227 228 231 232 234 236 238 239 240 239 239 242 243 245 248 250 252
213 224 233 227 225 227 229 231 234 236 238 239 241 243 244 245 245 246 248 250 253 255
207 214 225 220 221 224 231 235 238 239 241 242 242 245 246 248 248 249 250 252 253 256
217 220 222 222 223 229 237 244 246 245 243 245 245 248 249 250 250 252 253 254 255 256
225 228 228 231 234 237 239 248 252 249 246 246 248 250 254 253 253 254 255 254 254 256
230 232 234 240 245 246 249 252 254 254 253 252 252 248 252 259 255 255 256 256 256 257